Roanoke, VA

7:27 AM EDT on April 23, 2017 (GMT -0400)
Roanoke Regional-Woodrum

Weather History for KROA - March, 2014

Change the Weather History Date:

Thursday, March 13, 2014

  Actual Average Record
Temperature  
Mean Temperature 30 °F 46 °F  
Max Temperature 37 °F 57 °F 86 °F (1990)
Min Temperature 24 °F 36 °F 15 °F (1998)
Degree Days  
Heating Degree Days 34 19  
Month to date heating degree days 267  
Since 1 July heating degree days 3472  
Cooling Degree Days 0 0  
Month to date cooling degree days 0  
Year to date cooling degree days 0  
Moisture  
Dew Point 6 °F    
Average Humidity 36    
Maximum Humidity 66    
Minimum Humidity 13    
Precipitation  
Precipitation 0.00 in 0.11 in 1.73 in (1993)
Month to date precipitation 1.35  
Year to date precipitation 7.16  
Snow  
Snow 0.00 in - - ()
Month to date snowfall  
Since 1 July snowfall  
Snow Depth -    
Sea Level Pressure  
Sea Level Pressure 30.00 in    
Wind  
Wind Speed 15 mph (WNW)    
Max Wind Speed 24 mph    
Max Gust Speed 38 mph    
Visibility 10 miles    
Events Snow    
T = Trace of Precipitation, MM = Missing Value Source: NWS Daily Summary

Daily Weather History Graph

Daily Weather History Graph

Search for Another Location

Airport or City:

Trip Planner

Search our weather history database for the weather conditions in past years. The results will help you decide how hot, cold, wet, or windy it might be!

Date:

Astronomy

Mar. 13, 2014 Rise Set
Actual Time 7:33 AM EDT 7:25 PM EDT
Civil Twilight 7:07 AM EDT 7:51 PM EDT
Nautical Twilight 6:37 AM EDT 8:21 PM EDT
Astronomical Twilight 6:07 AM EDT 8:52 PM EDT
Moon 4:52 PM EDT (3/13) 5:36 AM EDT (3/13)
Length of Visible Light 12h 43m
Length of Day
11h 51m
Waxing Gibbous, 91% of the Moon is Illuminated
Mar 13
Waxing Gibbous
Mar 16
Full
Mar 23
Last Quarter
Mar 30
New
Apr 7
First Quarter

Hourly Weather History & Observations

Time (EDT) Temp. Windchill Dew Point Humidity Pressure Visibility Wind Dir Wind Speed Gust Speed Precip Events Conditions
12:54 AM 34.0 °F 25.5 °F 17.1 °F 50% 29.68 in 10.0 mi NW 11.5 mph 18.4 mph N/A   Overcast
1:54 AM 32.0 °F 19.2 °F 16.0 °F 52% 29.72 in 10.0 mi WNW 23.0 mph 38.0 mph N/A   Overcast
2:54 AM 30.0 °F 17.9 °F 12.0 °F 47% 29.76 in 10.0 mi WNW 18.4 mph 28.8 mph 0.00 in   Overcast
3:54 AM 28.9 °F 18.2 °F 15.1 °F 56% 29.77 in 10.0 mi WNW 13.8 mph 18.4 mph 0.00 in   Overcast
4:54 AM 27.0 °F 12.2 °F 17.1 °F 66% 29.79 in 3.0 mi NW 24.2 mph 34.5 mph 0.00 in Snow Light Snow
5:54 AM 27.0 °F 12.8 °F 10.0 °F 49% 29.83 in 10.0 mi NNW 21.9 mph 32.2 mph 0.00 in   Overcast
6:54 AM 26.1 °F 13.6 °F 7.0 °F 44% 29.88 in 10.0 mi NW 16.1 mph - N/A   Scattered Clouds
7:54 AM 25.0 °F 15.5 °F 7.0 °F 46% 29.93 in 10.0 mi NW 9.2 mph - N/A   Scattered Clouds
8:54 AM 24.1 °F 11.0 °F 9.0 °F 53% 29.99 in 10.0 mi NW 16.1 mph - N/A   Mostly Cloudy
9:54 AM 25.0 °F 13.1 °F 10.0 °F 53% 30.02 in 7.0 mi NW 13.8 mph 23.0 mph 0.00 in Snow Light Snow
10:54 AM 27.0 °F 15.2 °F 3.9 °F 37% 30.04 in 10.0 mi NW 15.0 mph 29.9 mph 0.00 in   Partly Cloudy
11:54 AM 28.9 °F 17.3 °F 3.0 °F 33% 30.07 in 10.0 mi WNW 16.1 mph 31.1 mph 0.00 in   Partly Cloudy
12:54 PM 32.0 °F 21.2 °F 1.0 °F 27% 30.08 in 10.0 mi WNW 16.1 mph 27.6 mph N/A   Partly Cloudy
1:54 PM 32.0 °F 19.5 °F -0.0 °F 26% 30.08 in 10.0 mi NW 21.9 mph 33.4 mph N/A   Partly Cloudy
2:54 PM 33.1 °F 23.0 °F -0.9 °F 23% 30.08 in 10.0 mi WNW 15.0 mph 33.4 mph 0.00 in   Clear
3:54 PM 36.0 °F 25.6 °F -0.0 °F 22% 30.09 in 10.0 mi NNW 18.4 mph 26.5 mph N/A   Clear
4:14 PM 35.6 °F 28.0 °F 1.4 °F 24% 30.06 in 10.0 mi West 10.4 mph 25.3 mph N/A   Clear
4:54 PM 37.0 °F 29.3 °F -0.0 °F 21% 30.09 in 10.0 mi WNW 11.5 mph 21.9 mph N/A   Clear
5:54 PM 37.0 °F 27.4 °F 1.0 °F 22% 30.10 in 10.0 mi WNW 17.3 mph 28.8 mph N/A   Clear
6:54 PM 35.1 °F 25.9 °F 1.9 °F 25% 30.13 in 10.0 mi WNW 13.8 mph 23.0 mph N/A   Clear
7:54 PM 34.0 °F 27.2 °F 3.0 °F 27% 30.16 in 10.0 mi WNW 8.1 mph - N/A   Clear
8:54 PM 33.1 °F 26.9 °F 3.0 °F 28% 30.19 in 10.0 mi NW 6.9 mph - N/A   Clear
9:54 PM 32.0 °F 27.5 °F 6.1 °F 34% 30.22 in 10.0 mi WSW 4.6 mph - N/A   Clear
10:54 PM 32.0 °F 25.6 °F 7.0 °F 35% 30.24 in 10.0 mi WNW 6.9 mph - N/A   Clear
11:54 PM 30.0 °F - 8.1 °F 40% 30.24 in 10.0 mi Calm Calm - N/A   Clear